Location: Willow Springs
(37.9952°N, 120.2591°W)
Time: 23:36:19
(UTC+00:00)

Cosmos 1818 - Pass Details

Date: 03 August 2024
Orbit: 770 x 801 km, 65.0° (Epoch: 10 September)

Event Time Altitude Azimuth Distance (km) Brightness Sun altitude
Exits shadow 12:02:06 - 193° (SSW) 2,678 5.9 -12.0°
Reaches altitude 10° 12:03:00 10° 191° (S) 2,343 5.6 -11.8°
Maximum altitude 12:08:13 53° 115° (ESE) 975 4.3 -11.0°
Drops below altitude 10° 12:13:31 10° 40° (NE) 2,375 7.4 -10.1°
Sets 12:16:00 0° 36° (NE) 3,311 8.2 -9.7°
